星链-1908 (STARLINK-1908 )

导读 | 豆包AI

STARLINK-1908是美国SpaceX公司星链(Starlink)星座中的一颗低地球轨道卫星,于2020年10月24日发射升空。作为星链早期组网卫星之一,它运行于约550公里高度轨道,配备相控阵天线,依托Ku/Ka频段提供宽带互联网接入服务,是星链实现全球覆盖星座组网计划的组成部分,助力推动全球卫星互联网的基础设施搭建。

基本信息
目录编号:
46747
目录名称:
STARLINK-1908
国际标识:
2020-074J
轨道中心:
EARTH
卫星名称:
星链-1908
卫星全名:
星链-1908 (STARLINK-1908 )
卫星状态:
已陨落 最后检测时间 2025-02-06
发射日期:
2020-10-24 UTC
国别 :
美国 (US)
星等 :
--
轨道信息
数据来源 国际轨道数据
星历时间: 2025-02-06T11:53:44+0800
轨道信息已过期421天
半长轴: 6559.181km
偏心率: 0.0008304
轨道倾角: 53.018°
近地点辐角 232.679°
升交点赤经 261.877°
平近点角 185.583°
近地点: 175.599km
远地点: 186.493km
周期: 88.112分钟
每日圈数: 16.342874
详细信息
固有亮度:
5
最大亮度:
2.5
卫星平台:
Starlink V1.0
覆盖范围:
全球
运营商:
太空探索技术公司
运营商所在国:
美国
制造商(研发单位):
太空探索技术公司
制造商所在国:
美国
使用方式:
暂无
卫星简介
星链(Starlink)计划是由太空探索技术公司(SpaceX)提出的一个巨型低轨卫星互联网星座项目,计划在2019年至2024年间在太空搭建由约1.2万颗卫星组成的“星链”网络,其中1584颗将部署在地球上空550千米处的近地轨道,并从2020年开始工作。该卫星仍在工作。